User: anonymous   Login
Location: Goheenville
(40.9070°N, 79.3720°W)
Time: 18:30:29
(UTC-04:00)
Language:

NOAA 11 - Orbit

View from above orbital plane
View from above orbital plane
View from above satellite
View from above satellite

Ground track
Ground track

The orbit data is extracted from the following two-line orbital elements,

1 19531U 88089A   17231.25749250 -.00000002  00000-0  20553-4 0  9992
2 19531  98.5459 287.1258 0010609 212.1048 147.9481 14.15211832491677
Epoch (UTC): 19 August 2017 06:10:47
Eccentricity: 0.0010609
inclination: 98.5459°
perigee height: 834 km
apogee height: 849 km
right ascension of ascending node: 287.1258°
argument of perigee: 212.1048°
revolutions per day: 14.15211832
mean anomaly at epoch: 147.9481°
orbit number at epoch: 49167

The dashed part of the orbit path shows where the satellite is in the earth's shadow,  

DLR